Weather Roundup
Issued by NWS Chicago, IL

Home | Current Version | Previous Version | Text Only | Print | Product List | Glossary Off
Versions: 1 2 3 4 5 6 7 8 9 10 11 12 13 14 15 16 17 18 19 20 21 22 23 24 25 26 27 28 29 30 31 32 33 34 35 36 37 38 39 40 41 42 43 44 45 46 47 48 49 50

000
NZUS59 KLOT 032012
HRRLOT

CHICAGO AREA WEATHER ROUNDUP
NATIONAL WEATHER SERVICE CHICAGO/ROMEOVILLE IL
200 PM CST SAT DEC 03 2016

NOTE: "FAIR" INDICATES FEW OR NO CLOUDS BELOW 12,000 FEET WITH NO
SIGNIFICANT WEATHER AND/OR OBSTRUCTIONS TO VISIBILITY.

* THESE STATIONS ARE NOT UNDER NWS QUALITY CONTROL. THEY ALSO MAY NOT
  REPORT WEATHER SUCH AS PRECIPITATION OR FOG.

ILZ005-006-012>014-019>023-032100-
NORTHEAST ILLINOIS

CITY           SKY/WX    TMP DP  RH WIND       PRES   REMARKS
OHARE          CLOUDY    33  23  66 W7        30.32F WCI  27
MIDWAY         CLOUDY    34  22  61 W6        30.33F WCI  29
AURORA         MOSUNNY   35  25  66 W3        30.32F
LANSING*       CLOUDY    34  27  76 SW6       30.34S WCI  29
JOLIET*        CLOUDY    35  26  69 W3        30.35S
WAUKEGAN       CLOUDY    32  23  69 CALM      30.31F
DUPAGE AIRPORT CLOUDY    33  24  69 W6        30.31F WCI  28
WHEELING       CLOUDY    33  23  66 W9        30.34F WCI  25
KANKAKEE*      CLOUDY    34  26  72 W7        30.36S WCI  27
MORRIS*        CLOUDY    34  25  71 CALM      30.34S
LEWIS AIRPORT* CLOUDY    33  28  82 NW7       30.33F WCI  27
NORTHERLY ISL    N/A     34  23  64 S6          N/A  WCI  29
$$

WIZ051-052-058>065-066-070>072-032100-
SOUTHEAST WISCONSIN

CITY           SKY/WX    TMP DP  RH WIND       PRES   REMARKS
MILWAUKEE      CLOUDY    33  23  66 SW9       30.32S WCI  25
KENOSHA*       CLOUDY    32  23  69 W10       30.31F WCI  24
RACINE*        CLOUDY    32  22  66 SW6       30.33F WCI  26
BURLINGTON     CLOUDY    31  23  72 CALM      30.31F
WEST BEND      CLOUDY    32  23  69 SW5       30.30R WCI  27
$$

INZ001>003-010>013-019-020-032100-
NORTHWEST INDIANA

CITY           SKY/WX    TMP DP  RH WIND       PRES   REMARKS
GARY*          CLOUDY    36  25  64 SW7       30.35F
MICHIGAN CITY* NOT AVBL
RENSSELAER*    NOT AVBL
VALPARAISO     CLOUDY    36  23  59 SW9       30.34R
$$

LMZ740>746-032100-
SOUTHERN LAKE MICHIGAN

STATION/POSITION TIME  SKY/WX   TEMP WIND        PRES    VSBY
                                AIR  DIR/SP/G
                 (UTC)          (F)  (DEG/KT/KT) (MB)    (MI)
HARRISON CRIB    1940            35  270/  5/  7   N/A
BURNHAM HARBOR   2000            35  250/  3/ 11   N/A
CALUMET HARBOR   1948            34  220/  5/  8 1026.3F
BURNS HARBOR     2002            36  250/  4/ 11 1027.4
MICHIGAN CITY    1940            35  240/ 10/ 12   N/A
$$

ABBREVIATIONS USED IN REMARKS
   TC - TEMPERATURE IN CELSIUS
  WCI - WIND CHILL INDEX
   HX - HEAT INDEX
  VSB - VISIBILITY
$$



USA.gov is the U.S. government's official web portal to all federal, state and local government web resources and services.